Wind_Speed
18 18 17 17 19 19 21 21 16 16 16 22 25 31 25 27 22 20 26 25 27 25 24 22 22 18 16 10 16 21 21 19 20 23 15 19 17 16 18 11 8 14 15 44
10 8 9 4 5 9 13 13 13 15 15 20 30 25 23 27 28 21 19 19 10 14 18 13 10 13 7 6 7 10 12 9 15 17 4 1 4 7 14 19 21 29 16 28
6 3 3 5 9 12 12 14 13 14 14 19 20 21 28 22 24 23 23 32 30 28 26 21 16 15 15 12 12 18 23 29 25 22 25 29 37 38 34 31 26 37 42 58
11 9 7 7 9 16 18 11 14 13 9 20 21 19 19 12 13 22 23 24 25 23 26 26 28 29 30 31 34 28 23 27 26 30 31 32 38 40 41 37 42 33 50 45
19 17 11 8 10 11 18 21 12 13 12 7 13 17 18 16 15 24 19 21 11 13 13 15 21 22 21 19 20 16 17 20 24 31 28 32 40 41 44 37 23 30 32 41
15 18 22 19 15 13 15 16 19 22 23 19 15 14 12 13 11 13 13 16 17 15 16 17 25 27 23 25 23 24 26 26 24 32 25 24 32 26 12 16 26 34 31 35
14 15 17 19 20 19 16 15 19 17 18 15 16 8 12 17 16 13 14 16 16 12 17 22 25 31 34 34 34 31 34 31 28 26 25 18 20 13 24 38 22 17 27 21
13 14 13 15 17 18 19 20 20 21 23 25 26 24 24 19 20 22 20 16 16 18 19 28 29 27 32 34 33 33 31 32 30 21 24 34 44 25 9 15 30 26 17 22
14 14 15 13 12 14 17 21 23 25 24 25 24 24 22 23 25 25 24 22 25 24 22 23 17 11 11 8 6 9 17 23 33 21 8 7 5 10 17 28 33 8 21 24
17 16 15 16 16 15 13 15 18 21 26 26 26 26 26 26 24 26 24 25 26 24 20 22 23 26 24 19 22 22 24 17 24 31 21 27 33 35 26 10 10 17 23 25
23 20 21 20 18 19 20 19 20 20 24 24 22 21 25 25 25 29 28 26 24 20 22 20 24 25 28 33 36 33 31 23 25 23 20 18 26 11 11 8 12 22 25 25
26 26 27 25 24 23 25 24 23 22 25 23 21 19 16 18 19 27 29 30 22 14 14 15 14 22 23 27 30 28 33 33 34 28 25 25 20 21 22 29 29 25 24 23
24 25 24 24 25 25 28 28 28 27 29 32 33 25 26 26 18 18 25 27 28 31 32 34 39 32 17 30 40 35 33 23 28 33 42 43 42 34 29 26 27 31 24 24
26 24 23 22 20 22 26 30 30 31 30 38 39 30 29 30 21 26 28 24 24 26 30 32 36 41 42 37 21 21 27 30 31 36 38 38 37 34 32 29 35 26 23 22
23 26 27 24 21 21 24 26 27 28 29 35 42 39 31 31 29 25 22 30 32 33 35 36 41 43 40 48 49 54 50 44 36 39 32 36 31 25 27 32 26 23 17 17
24 23 21 24 24 23 27 27 21 22 22 30 39 43 41 31 25 26 26 23 24 26 40 42 49 46 36 32 44 53 45 40 36 33 37 41 31 27 30 19 10 11 16 12
18 18 19 20 21 25 27 28 25 24 22 24 18 23 26 24 22 25 28 28 33 37 40 50 48 47 35 37 56 44 37 30 34 38 31 27 19 23 25 23 21 15 16 12
17 17 18 19 20 24 27 22 22 22 28 30 28 34 39 31 29 29 21 16 25 33 36 41 44 38 37 45 52 41 36 32 23 15 21 25 24 20 26 28 26 19 17 12
19 19 21 24 26 26 22 22 24 24 27 35 38 41 40 20 12 17 22 17 22 27 33 38 37 38 37 49 40 34 30 32 25 14 12 15 18 19 18 20 16 21 17 12
16 17 19 19 21 20 19 20 23 27 32 41 49 43 49 38 34 35 31 22 20 17 24 25 44 50 48 43 37 33 20 18 29 21 14 15 19 18 16 17 17 20 18 16
18 20 22 21 18 16 17 12 13 13 19 30 35 33 34 31 38 38 22 16 14 9 14 16 10 31 32 26 22 19 17 17 21 16 17 12 11 12 15 15 13 13 16 17
17 15 15 15 16 11 8 10 11 15 15 22 24 27 29 30 25 26 13 19 10 8 6 9 8 13 4 7 15 19 20 17 19 20 20 18 17 15 12 11 12 12 13 15
15 16 14 7 8 12 9 12 13 12 19 17 25 21 13 11 21 14 10 10 13 7 7 10 23 17 14 7 6 13 22 28 29 26 24 20 19 20 20 19 17 15 13 14
17 14 13 8 8 11 22 23 20 24 32 36 31 19 8 22 14 13 7 9 4 6 10 19 18 16 14 12 14 14 18 23 23 23 22 19 19 20 19 17 16 15 15 14
18 14 8 14 20 24 24 24 26 20 18 24 29 22 22 27 13 11 9 6 7 7 9 13 11 11 14 14 12 14 17 21 21 19 17 14 13 15 15 13 11 11 11 12
14 13 18 22 23 22 21 25 31 31 22 15 15 12 13 13 7 7 9 6 7 7 6 3 9 7 10 12 10 10 15 18 16 16 15 13 12 12 11 10 9 9 9 9
18 22 16 16 24 26 25 26 30 29 25 23 8 8 10 4 7 10 9 13 15 14 14 14 16 8 11 9 7 11 15 16 16 16 15 14 13 11 11 10 9 8 8 8
Wind_Direction
290 287 271 259 253 250 240 242 244 245 231 206 228 223 232 238 253 240 249 254 253 254 257 271 262 260 248 262 278 283 289 285 279 291 307 276 270 256 262 265 255 241 279 281
294 305 288 281 231 205 220 238 242 237 224 219 223 231 245 245 255 236 242 239 249 250 261 263 261 262 243 243 263 276 288 276 306 309 296 17 242 281 293 285 279 271 276 275
245 253 283 218 205 194 225 234 242 238 232 241 242 244 249 258 263 259 247 250 255 256 255 243 259 246 244 233 243 267 281 284 271 259 276 294 290 290 292 289 272 274 259 284
246 252 257 263 243 214 213 217 244 245 241 227 238 242 255 239 269 253 252 253 244 247 253 258 249 257 264 258 268 271 267 272 274 275 283 290 295 295 294 282 281 256 291 290
245 244 251 256 256 246 232 231 214 206 226 217 229 230 247 259 253 251 263 260 206 222 256 257 263 265 263 276 258 253 256 270 276 283 285 295 297 295 296 291 287 277 298 299
264 259 257 258 257 263 256 248 247 252 250 251 257 265 250 267 243 250 253 260 270 265 272 265 263 256 268 268 264 268 277 281 292 284 295 294 293 297 278 281 293 305 300 313
272 265 261 256 253 250 256 254 241 248 252 247 241 231 239 259 263 254 252 256 262 271 280 279 274 275 274 272 269 265 266 273 279 284 293 279 271 265 289 293 305 306 311 328
275 271 269 261 256 253 252 257 258 259 259 255 253 258 269 271 260 272 268 263 265 265 272 287 289 289 283 277 273 264 264 259 251 255 259 270 282 293 325 322 309 321 318 329
297 282 271 271 267 261 258 260 259 263 266 269 265 260 264 266 264 266 270 264 269 277 273 272 259 255 266 277 269 244 243 251 234 242 240 248 228 256 300 306 305 316 328 330
275 280 282 273 268 270 266 271 272 270 269 266 267 269 267 269 270 274 274 271 267 267 267 260 251 253 249 249 253 254 262 268 233 234 248 261 270 287 291 270 302 327 328 327
259 262 266 274 272 271 272 271 278 278 277 277 271 266 266 271 272 269 268 273 269 266 261 257 259 248 246 255 259 257 251 249 246 247 246 268 276 302 232 275 292 319 322 322
259 261 266 270 272 265 267 268 271 272 271 268 275 265 268 264 268 270 267 262 249 238 243 254 250 248 246 252 252 263 247 247 246 241 244 257 275 284 297 306 298 316 320 318
259 264 270 270 266 263 264 265 270 274 281 283 278 278 256 254 287 274 282 272 268 259 257 262 266 270 272 251 252 259 258 260 250 256 255 258 262 271 285 302 309 288 309 313
261 262 265 267 270 265 264 265 265 270 276 280 277 272 259 269 267 275 282 272 284 270 269 263 254 260 257 258 244 252 261 268 265 269 268 264 261 267 275 291 294 288 299 300
263 259 260 265 267 267 267 271 272 275 272 275 279 274 274 277 281 275 259 272 280 270 259 257 251 256 263 262 263 263 263 265 261 277 278 264 269 282 279 291 279 275 275 289
261 265 266 265 264 268 270 276 275 283 281 275 280 285 281 281 270 268 271 265 276 276 251 248 250 254 257 264 261 260 268 269 271 273 266 268 258 260 278 275 258 262 259 283
266 266 267 268 259 256 259 267 277 283 284 275 275 297 281 281 276 272 270 275 269 269 265 245 247 252 261 249 250 255 268 267 273 277 262 233 236 265 261 258 268 267 260 268
263 265 267 267 263 257 258 271 277 279 275 274 275 278 280 280 286 290 288 302 277 264 253 251 247 256 246 253 259 258 255 263 263 245 222 225 259 259 256 256 262 243 246 245
268 264 265 265 260 263 272 273 270 263 258 262 266 266 275 275 277 290 304 296 293 267 248 242 241 238 230 250 262 266 266 275 260 199 204 249 259 263 248 244 257 223 226 256
278 276 271 271 275 277 277 274 267 264 262 258 261 263 261 269 276 283 290 292 283 256 246 243 234 243 251 255 261 266 265 246 210 220 235 253 258 256 253 243 239 223 233 255
284 280 267 268 275 271 274 271 263 260 249 260 268 269 272 272 269 273 265 267 282 254 244 210 232 253 259 261 260 247 231 211 196 221 245 231 233 244 241 235 230 228 238 240
282 277 265 267 259 253 244 242 249 247 261 267 281 279 277 276 266 245 251 248 244 256 208 192 245 275 323 236 224 218 209 214 212 213 231 244 243 243 245 230 226 232 237 235
268 259 249 241 230 225 230 232 234 240 257 269 293 316 292 304 265 221 211 233 219 215 214 238 260 269 287 241 235 217 217 222 229 237 240 241 246 244 247 248 246 244 244 239
241 221 208 212 224 236 243 248 253 262 274 282 296 301 283 302 238 215 227 236 222 221 234 255 285 280 258 244 237 224 217 221 226 225 227 242 242 239 243 245 246 238 240 244
239 218 216 237 250 255 258 274 308 318 305 286 288 295 288 285 244 203 217 205 218 228 246 272 302 294 245 243 250 232 218 213 216 219 221 227 230 224 223 225 226 227 233 239
244 234 233 250 262 277 278 276 284 304 317 301 278 274 279 247 228 211 197 219 224 254 290 295 313 280 253 253 262 215 204 199 196 197 200 201 196 193 195 201 209 214 217 216
252 262 275 282 278 279 286 273 284 297 312 313 302 271 237 226 215 214 213 237 258 268 279 279 290 259 248 246 219 189 177 174 174 174 179 181 183 185 189 191 191 181 172 168
Height
3063 3061 3061 3061 3062 3063 3063 3065 3068 3070 3072 3076 3076 3078 3082 3084 3086 3090 3090 3090 3090 3092 3094 3091 3092 3092 3093 3093 3093 3092 3092 3086 3080 3079 3079 3077 3077 3077 3078 3077 3070 3063 3057 3018
3061 3059 3057 3058 3059 3059 3060 3061 3064 3065 3068 3068 3071 3073 3077 3079 3082 3085 3084 3085 3086 3087 3090 3089 3086 3086 3088 3087 3089 3089 3088 3083 3079 3074 3076 3076 3075 3075 3075 3073 3068 3054 3058 3019
3059 3058 3056 3055 3057 3057 3059 3060 3061 3062 3063 3064 3068 3070 3071 3073 3076 3079 3079 3079 3080 3081 3083 3083 3080 3081 3083 3081 3082 3083 3082 3078 3079 3076 3074 3074 3068 3068 3067 3067 3060 3045 3036 3015
3056 3056 3055 3055 3054 3054 3056 3056 3056 3057 3058 3062 3064 3067 3068 3068 3071 3072 3072 3073 3074 3076 3076 3075 3074 3076 3076 3077 3077 3077 3077 3071 3071 3070 3069 3066 3060 3055 3053 3051 3043 3045 3019 3022
3052 3052 3052 3052 3051 3052 3053 3053 3054 3054 3057 3059 3061 3061 3060 3063 3067 3067 3067 3068 3066 3068 3069 3069 3068 3069 3069 3070 3070 3070 3069 3066 3065 3061 3063 3060 3050 3047 3040 3038 3033 3028 3022 3011
3046 3046 3047 3048 3048 3048 3048 3049 3050 3052 3053 3055 3057 3056 3058 3060 3061 3062 3064 3064 3063 3064 3066 3064 3063 3063 3063 3063 3064 3064 3064 3064 3062 3052 3057 3054 3043 3036 3033 3032 3029 3026 3018 3011
3042 3042 3042 3043 3044 3044 3045 3045 3047 3048 3047 3050 3052 3052 3053 3056 3058 3059 3060 3061 3061 3063 3060 3058 3057 3055 3054 3055 3055 3060 3057 3060 3061 3053 3053 3045 3033 3031 3031 3027 3023 3021 3015 3011
3037 3038 3038 3038 3039 3040 3040 3041 3042 3041 3041 3044 3047 3048 3047 3050 3053 3053 3054 3056 3058 3055 3054 3052 3049 3048 3046 3045 3046 3049 3051 3053 3052 3052 3047 3032 3028 3030 3026 3023 3017 3017 3013 3008
3033 3033 3034 3034 3035 3035 3035 3035 3035 3036 3035 3036 3040 3040 3043 3043 3045 3047 3049 3050 3049 3050 3048 3048 3046 3044 3043 3043 3041 3042 3044 3043 3046 3044 3039 3031 3023 3024 3023 3022 3014 3013 3010 3005
3028 3029 3029 3029 3030 3031 3031 3030 3029 3030 3028 3030 3032 3035 3035 3036 3039 3039 3040 3039 3042 3042 3041 3040 3039 3037 3038 3036 3034 3038 3039 3037 3035 3036 3032 3019 3019 3019 3020 3021 3019 3011 3008 3004
3023 3024 3024 3025 3025 3026 3026 3026 3025 3024 3021 3023 3026 3028 3027 3030 3032 3030 3032 3034 3033 3035 3034 3034 3031 3027 3025 3023 3023 3025 3028 3030 3028 3028 3026 3017 3016 3016 3015 3015 3013 3010 3007 3003
3016 3017 3018 3019 3020 3020 3020 3021 3019 3018 3016 3017 3020 3021 3023 3024 3025 3022 3022 3023 3027 3027 3028 3026 3024 3019 3016 3014 3011 3016 3015 3017 3018 3019 3011 3012 3011 3011 3012 3012 3011 3009 3005 3001
3009 3010 3011 3012 3013 3014 3013 3013 3013 3012 3010 3010 3009 3013 3015 3014 3018 3017 3014 3014 3016 3017 3020 3019 3017 3011 3010 3006 3002 3006 3005 3008 3007 3009 3003 3005 3004 3008 3009 3008 3005 3006 3004 3000
3002 3003 3005 3006 3006 3006 3006 3005 3007 3006 3006 2998 2999 3005 3006 3006 3008 3008 3005 3006 3005 3007 3007 3007 3003 3000 3002 3000 2997 2997 3000 3001 3000 2996 2997 2999 2996 3001 3003 3003 3001 3002 3000 2997
2995 2996 2998 2999 3000 3001 2999 2998 2999 3000 3002 2993 2990 2992 2996 2998 2996 2997 2998 2996 2996 2997 2996 2993 2990 2989 2993 2989 2991 2987 2985 2987 2991 2986 2992 2991 2992 2997 2998 2997 2995 2996 2997 2994
2989 2990 2991 2992 2993 2994 2992 2992 2996 2994 2992 2986 2979 2979 2981 2984 2987 2987 2987 2986 2985 2984 2983 2980 2976 2978 2987 2980 2973 2962 2976 2979 2981 2978 2982 2983 2986 2988 2992 2992 2991 2992 2992 2991
2983 2984 2985 2985 2986 2986 2986 2988 2989 2988 2988 2984 2973 2969 2971 2974 2977 2977 2977 2977 2971 2971 2969 2963 2965 2968 2972 2968 2953 2961 2967 2969 2971 2969 2971 2973 2977 2983 2986 2987 2987 2988 2988 2988
2977 2978 2979 2979 2979 2979 2978 2982 2983 2982 2979 2977 2970 2963 2964 2967 2967 2967 2966 2964 2960 2956 2953 2952 2953 2960 2961 2950 2939 2953 2958 2963 2959 2962 2964 2969 2973 2976 2977 2980 2981 2982 2984 2985
2972 2972 2972 2971 2972 2971 2975 2976 2975 2975 2974 2967 2961 2959 2956 2958 2960 2960 2959 2957 2954 2950 2943 2944 2949 2948 2938 2932 2940 2946 2950 2954 2956 2959 2960 2965 2969 2970 2971 2973 2974 2976 2979 2980
2966 2966 2966 2965 2966 2967 2969 2967 2965 2964 2961 2955 2948 2952 2947 2956 2956 2954 2956 2951 2946 2940 2936 2937 2934 2927 2929 2932 2936 2940 2945 2945 2948 2951 2955 2959 2963 2964 2965 2967 2968 2971 2974 2976
2961 2959 2960 2961 2961 2962 2962 2961 2960 2957 2950 2945 2941 2943 2942 2947 2946 2948 2952 2946 2941 2931 2928 2928 2926 2920 2920 2927 2929 2933 2937 2940 2943 2948 2952 2955 2957 2959 2960 2962 2964 2966 2968 2970
2955 2954 2955 2956 2957 2957 2957 2954 2953 2950 2944 2941 2940 2940 2938 2937 2938 2939 2939 2938 2936 2923 2920 2923 2919 2916 2919 2921 2925 2928 2931 2936 2939 2943 2947 2950 2953 2955 2957 2958 2960 2962 2964 2966
2950 2951 2951 2952 2953 2952 2950 2946 2945 2943 2942 2939 2934 2933 2931 2930 2929 2931 2932 2928 2923 2921 2920 2916 2911 2914 2915 2917 2918 2921 2925 2929 2934 2938 2942 2944 2947 2949 2952 2954 2956 2958 2960 2962
2946 2944 2945 2947 2945 2942 2940 2941 2941 2941 2938 2934 2932 2928 2928 2927 2925 2924 2922 2920 2918 2917 2911 2905 2908 2909 2910 2912 2914 2916 2920 2924 2928 2931 2935 2938 2941 2943 2946 2949 2951 2953 2955 2957
2941 2940 2940 2938 2939 2938 2938 2935 2935 2934 2932 2929 2927 2924 2923 2921 2918 2914 2916 2914 2911 2908 2905 2905 2905 2905 2906 2909 2910 2912 2915 2919 2923 2927 2931 2934 2936 2938 2942 2945 2947 2949 2951 2953
2936 2934 2935 2935 2933 2935 2935 2934 2931 2929 2925 2923 2921 2918 2915 2911 2910 2908 2908 2907 2904 2904 2903 2903 2903 2903 2905 2907 2908 2909 2912 2916 2919 2923 2927 2930 2934 2936 2939 2942 2945 2947 2948 2950
2929 2929 2930 2930 2928 2928 2928 2928 2926 2923 2921 2918 2917 2914 2909 2902 2903 2902 2901 2901 2902 2901 2901 2901 2901 2901 2903 2905 2906 2908 2911 2914 2917 2921 2925 2929 2933 2936 2938 2941 2943 2945 2947 2949